Flag for Argentina Weather past 2 weeks in Río Grande, Tierra del Fuego, Argentina

Now
59 °F

Partly sunny.


Feels Like: 58 °F
Forecast: 50 / 64 °F
Wind: 8 mph from West

Location: Rio Grande B. A.

Current Time: Jan 30, 2015 at 9:48:16 AM

Latest Report: Jan 30, 2015 at 9:00 AM


Visibility: N/A

Pressure: 29.56 "Hg

Humidity: 77%

Dew point: 52 °F

Location of Río GrandeLocation

Historic Weather in Río Grande — Graph

°F

Río Grande temperature yesterday

Maximum temperature yesterday: 61 °F (at 11:00 AM)
Minimum temperature yesterday: 41 °F (at 4:00 AM)
Average temperature yesterday: 50 °F

Past Weeks' High & Low Weather Summary

 TemperatureHumidityPressure
High82 °F (Jan 22, 12:00 PM)100% (Jan 26, 3:00 AM)30.01 "Hg (Jan 26, 3:00 AM)
Low34 °F (Jan 16, 6:00 AM)21% (Jan 22, 12:00 PM)29.21 "Hg (Jan 15, 4:00 PM)
Average55 °F69%29.70 "Hg
* Reported Jan 15 8:00 AM — Jan 30 8:00 AM, Río Grande, Weather by CustomWeather, © 2014

Note: Actual official high and low records may vary slightly from our data, if they occured in-between our weather recording intervals... More about our weather records

Advertising

Río Grande weather history for previous 24 hours

 ConditionsComfort  
Time TempWeatherWind HumidityBarometerVisibility
8:00 AM
Jan 30
59 °FScattered clouds.7 mph77%29.59 "HgN/A
6:00 AM54 °FScattered clouds.8 mph82%29.56 "HgN/A
5:00 AM52 °FScattered clouds.3 mph88%29.56 "Hg4 mi
4:00 AM52 °FFog.2 mph94%29.59 "Hg5 mi
3:00 AM52 °FPassing clouds.5 mph94%29.59 "Hg3 mi
1:00 AM50 °FFog.No wind94%29.62 "Hg3 mi
12:00 AM52 °FFog.2 mph94%29.62 "Hg3 mi
11:00 PM
Jan 29
52 °FPassing clouds.9 mph94%29.65 "Hg3 mi
10:00 PM50 °FPassing clouds.10 mph100%29.65 "Hg3 mi
9:00 PM54 °FFog.8 mph88%29.65 "Hg5 mi
8:00 PM54 °FFog.15 mph88%29.68 "Hg5 mi
7:00 PM55 °FScattered clouds.17 mph82%29.68 "HgN/A
12:00 PM61 °FScattered clouds.18 mph55%29.83 "HgN/A
11:00 AM61 °FScattered clouds.N/A59%29.86 "HgN/A
10:00 AM59 °FSunny.15 mph59%29.89 "Hg10 mi
9:00 AM50 °FSunny.13 mph76%29.89 "Hg10 mi
Weather by CustomWeather, © 2014

See weather overviewHow to use our weather pages